Latest Weather Observations for Yarrawonga

IDV60801

Issued at 9:02 pm EST Sunday 24 May 2015 (issued every 30 minutes, with the page automatically refreshed every 10 minutes)

About weather observations | Map of weather stations | Latest weather observations for VIC | Other Formats
Station Details ID: 081124 Name: YARRAWONGA Lat: -36.03 Lon: 146.03 Height: 128.9 m
Data from the previous 72 hours. | See also: Recent months at Yarrawonga
Date/Time
EST
Temp
°C
App
Temp
°C
Dew
Point
Rel
Hum
%
Delta-T
°C
Wind Press
QNH
hPa
Press
MSL
hPa
Rain
since 9 am
mm
Dir
 
Spd
km/h
Gust
km/h
Spd
kts
Gust
kts
24/09:00pm 3.7 1.5 3.4 98 0.1 SE 4 4 2 2 1031.7 1031.7 0.0
24/08:30pm 3.9 2.1 3.6 98 0.1 SE 2 4 1 2 1031.8 1031.8 0.0
24/08:00pm 4.6 3.0 4.3 98 0.1 SE 2 6 1 3 1031.5 1031.5 0.0
24/07:30pm 5.4 3.5 5.1 98 0.1 ESE 4 6 2 3 1031.5 1031.5 0.0
24/07:00pm 5.1 3.2 4.8 98 0.1 SSE 4 6 2 3 1031.4 1031.4 0.0
24/06:30pm 6.5 4.8 5.8 95 0.3 SSE 4 6 2 3 1031.3 1031.3 0.0
24/06:00pm 7.5 5.5 6.1 91 0.6 S 6 6 3 3 1031.2 1031.2 0.0
24/05:30pm 9.5 7.5 6.4 81 1.4 SSE 6 6 3 3 1030.8 1030.9 0.0
24/05:00pm 11.8 11.2 7.5 75 2.1 CALM 0 6 0 3 1030.7 1030.8 0.0
24/04:30pm 12.7 12.1 7.4 70 2.6 CALM 0 0 0 0 1030.7 1030.8 0.0
24/04:00pm 13.3 12.7 7.5 68 2.8 CALM 0 4 0 2 1030.4 1030.5 0.0
24/03:30pm 14.0 13.0 7.3 64 3.3 E 2 4 1 2 1030.5 1030.6 0.0
24/03:00pm 13.6 12.2 7.2 65 3.1 E 4 7 2 4 1030.5 1030.6 0.0
24/02:30pm 13.6 11.8 7.2 65 3.1 NE 6 9 3 5 1030.6 1030.7 0.0
24/02:00pm 13.2 11.3 7.6 69 2.7 ENE 7 9 4 5 1030.6 1030.7 0.0
24/01:30pm 13.3 11.3 7.3 67 2.9 ENE 7 13 4 7 1030.7 1030.8 0.0
24/01:00pm 13.6 11.8 7.8 68 2.9 ENE 7 11 4 6 1031.2 1031.2 0.0
24/12:30pm 12.7 10.9 7.0 68 2.8 NNE 6 9 3 5 1031.8 1031.8 0.0
24/12:00pm 12.2 10.8 7.3 72 2.4 NNE 4 7 2 4 1032.2 1032.3 0.0
24/11:30am 11.2 9.3 6.7 74 2.1 NNE 6 9 3 5 1032.6 1032.7 0.0
24/11:00am 11.1 9.0 6.8 75 2.0 ENE 7 11 4 6 1032.7 1032.8 0.0
24/10:30am 10.2 8.1 6.7 79 1.6 E 7 13 4 7 1033.0 1033.1 0.0
24/10:00am 8.9 6.7 6.3 84 1.2 E 7 11 4 6 1033.1 1033.2 0.0
24/09:30am 8.0 5.0 6.1 88 0.9 ENE 11 15 6 8 1032.8 1032.9 0.0
24/09:00am 6.8 4.7 6.5 98 0.1 E 7 9 4 5 1032.7 1032.8 0.0
24/08:30am 5.0 2.7 4.9 99 0.0 E 6 7 3 4 1032.3 1032.4 0.0
24/08:00am 2.5 -0.2 2.4 99 0.0 E 6 7 3 4 1032.2 1032.3 0.0
24/07:30am 1.5 -1.4 1.4 99 0.0 E 6 7 3 4 1031.8 1031.8 0.0
24/07:00am 2.0 -0.8 1.9 99 0.0 E 6 7 3 4 1031.5 1031.5 0.0
24/06:30am 1.7 -2.1 1.6 99 0.0 E 11 11 6 6 1031.0 1031.1 0.0
24/06:00am 2.0 -0.4 1.9 99 0.0 E 4 6 2 3 1030.8 1030.9 0.0
24/05:30am 1.5 -2.0 1.4 99 0.0 E 9 11 5 6 1030.3 1030.4 0.0
24/05:00am 2.6 0.3 2.5 99 0.0 ESE 4 4 2 2 1030.5 1030.6 0.0
24/04:30am 2.5 -0.2 2.4 99 0.0 ESE 6 7 3 4 1030.2 1030.3 0.0
24/04:00am 2.5 -0.4 2.4 99 0.0 SE 7 11 4 6 1030.1 1030.2 0.0
24/03:30am 2.5 -0.4 2.4 99 0.0 ESE 7 9 4 5 1030.2 1030.3 0.0
24/03:00am 2.5 0.1 2.4 99 0.0 E 4 6 2 3 1030.2 1030.3 0.0
24/02:30am 2.6 -0.3 2.5 99 0.0 ESE 7 7 4 4 1030.1 1030.2 0.0
24/02:00am 0.9 -2.3 0.6 98 0.1 ESE 7 9 4 5 1030.1 1030.2 0.0
24/01:30am 0.8 -2.2 0.5 98 0.1 ESE 6 7 3 4 1030.2 1030.3 0.0
24/01:00am 0.9 -1.4 0.6 98 0.1 ESE 2 6 1 3 1030.3 1030.4 0.0
24/12:30am 1.6 -0.2 1.3 98 0.1 CALM 0 0 0 0 1030.5 1030.6 0.0
24/12:00am 1.7 -0.1 1.4 98 0.1 CALM 0 0 0 0 1030.5 1030.6 0.0
 
Date/Time
EST
Temp
°C
App
Temp
°C
Dew
Point
Rel
Hum
%
Delta-T
°C
Wind Press
QNH
hPa
Press
MSL
hPa
Rain
since 9 am
mm
Dir
 
Spd
km/h
Gust
km/h
Spd
kts
Gust
kts
23/11:30pm 2.4 0.7 2.1 98 0.1 CALM 0 0 0 0 1030.5 1030.6 0.0
23/11:00pm 2.3 0.2 2.0 98 0.1 ESE 2 4 1 2 1030.3 1030.4 0.0
23/10:30pm 3.0 1.4 2.7 98 0.1 CALM 0 0 0 0 1030.2 1030.3 0.0
23/10:00pm 3.8 2.4 3.5 98 0.1 CALM 0 0 0 0 1030.5 1030.6 0.0
23/09:30pm 3.4 1.1 3.0 97 0.2 S 4 6 2 3 1030.5 1030.6 0.0
23/09:00pm 4.3 2.9 3.7 96 0.2 CALM 0 0 0 0 1030.5 1030.6 0.0
23/08:30pm 4.4 3.0 3.7 95 0.3 CALM 0 0 0 0 1030.3 1030.4 0.0
23/08:00pm 5.4 4.2 4.7 95 0.3 CALM 0 2 0 1 1030.2 1030.3 0.0
23/07:30pm 6.2 4.6 4.7 90 0.7 SSW 2 4 1 2 1030.1 1030.2 0.0
23/07:00pm 7.5 6.1 5.5 87 0.9 W 2 2 1 1 1030.1 1030.2 0.0
23/06:30pm 8.1 7.0 5.0 81 1.4 CALM 0 0 0 0 1030.0 1030.1 0.0
23/06:00pm 9.6 8.1 5.2 74 2.0 WNW 2 4 1 2 1029.8 1029.9 0.0
23/05:30pm 12.1 10.3 5.5 64 3.1 WNW 4 6 2 3 1029.7 1029.8 0.0
23/05:00pm 13.4 11.3 5.8 60 3.6 WNW 6 7 3 4 1029.7 1029.8 0.0
23/04:30pm 15.1 13.0 5.6 53 4.6 W 6 9 3 5 1029.4 1029.5 0.0
23/04:00pm 15.8 13.4 4.5 47 5.3 SW 6 9 3 5 1029.4 1029.5 0.0
23/03:30pm 16.4 13.8 4.4 45 5.7 W 7 11 4 6 1029.4 1029.5 0.0
23/03:00pm 16.8 14.6 5.1 46 5.6 W 6 9 3 5 1029.3 1029.4 0.0
23/02:30pm 16.2 14.4 5.2 48 5.3 W 4 7 2 4 1029.5 1029.6 0.0
23/02:00pm 15.6 13.3 5.8 52 4.7 WNW 7 15 4 8 1029.8 1029.9 0.0
23/01:30pm 15.3 13.8 5.0 50 4.9 N 2 7 1 4 1029.8 1029.9 0.0
23/01:00pm 14.9 13.2 5.7 54 4.4 NNE 4 9 2 5 1030.2 1030.3 0.0
23/12:30pm 13.9 12.1 5.5 57 4.0 NNW 4 7 2 4 1030.4 1030.5 0.0
23/12:00pm 13.7 11.4 4.8 55 4.1 NNE 6 7 3 4 1030.8 1030.9 0.0
23/11:30am 13.1 11.4 6.0 62 3.4 ESE 4 6 2 3 1031.5 1031.5 0.0
23/11:00am 11.5 9.3 5.2 65 2.9 SE 6 7 3 4 1031.7 1031.7 0.0
23/10:30am 10.8 8.5 5.6 70 2.4 SE 7 11 4 6 1031.8 1031.8 0.0
23/10:00am 9.4 7.6 5.4 76 1.8 ESE 4 6 2 3 1031.8 1031.8 0.0
23/09:30am 8.5 7.3 6.6 88 0.9 NE 2 4 1 2 1031.8 1031.8 0.0
23/09:00am 7.1 6.4 7.0 99 0.0 CALM 0 2 0 1 1031.7 1031.7 0.2
23/08:30am 3.6 1.8 3.5 99 0.0 SSE 2 6 1 3 1031.2 1031.2 0.2
23/08:00am 1.0 -2.0 0.9 99 0.0 S 6 7 3 4 1030.8 1030.9 0.0
23/07:30am 0.0 -2.0 -0.1 99 0.0 CALM 0 0 0 0 1030.7 1030.8 0.0
23/07:00am 0.1 -1.9 0.0 99 0.0 CALM 0 0 0 0 1030.6 1030.7 0.0
23/06:30am 0.2 -1.8 0.1 99 0.0 CALM 0 0 0 0 1030.3 1030.4 0.0
23/06:00am 0.2 -1.8 0.1 99 0.0 CALM 0 0 0 0 1030.1 1030.2 0.0
23/05:30am 0.9 -1.0 0.8 99 0.0 CALM 0 2 0 1 1029.7 1029.8 0.0
23/05:00am 0.8 -1.9 0.5 98 0.1 SSW 4 4 2 2 1029.5 1029.6 0.0
23/04:30am 1.5 -1.1 1.2 98 0.1 SW 4 6 2 3 1029.3 1029.4 0.0
23/04:00am 2.0 -0.9 1.7 98 0.1 WSW 6 6 3 3 1029.1 1029.2 0.0
23/03:30am 1.8 -0.7 1.5 98 0.1 WSW 4 4 2 2 1029.2 1029.3 0.0
23/03:00am 2.0 -0.9 1.7 98 0.1 WSW 6 7 3 4 1029.3 1029.4 0.0
23/02:30am 2.9 0.2 2.6 98 0.1 WSW 6 6 3 3 1029.2 1029.3 0.0
23/02:00am 3.5 1.3 3.2 98 0.1 WSW 4 7 2 4 1029.2 1029.3 0.0
23/01:30am 2.4 -1.0 2.1 98 0.1 WSW 9 11 5 6 1029.2 1029.3 0.0
23/01:00am 3.3 0.5 3.0 98 0.1 WSW 7 9 4 5 1029.3 1029.4 0.0
23/12:30am 4.5 2.5 4.2 98 0.1 WSW 4 6 2 3 1029.3 1029.4 0.0
23/12:00am 5.0 2.7 4.7 98 0.1 W 6 7 3 4 1029.3 1029.4 0.0
 
Date/Time
EST
Temp
°C
App
Temp
°C
Dew
Point
Rel
Hum
%
Delta-T
°C
Wind Press
QNH
hPa
Press
MSL
hPa
Rain
since 9 am
mm
Dir
 
Spd
km/h
Gust
km/h
Spd
kts
Gust
kts
22/11:30pm 4.8 2.2 4.1 95 0.3 SW 7 9 4 5 1029.0 1029.1 0.0
22/11:00pm 5.5 2.9 4.2 91 0.6 SSW 7 9 4 5 1028.7 1028.8 0.0
22/10:30pm 6.2 3.3 4.5 89 0.7 SW 9 9 5 5 1028.8 1028.9 0.0
22/10:00pm 7.4 4.3 5.5 88 0.8 SSW 11 15 6 8 1028.8 1028.9 0.0
22/09:30pm 6.0 2.7 4.6 91 0.6 SW 11 13 6 7 1028.6 1028.7 0.0
22/09:00pm 6.4 3.5 4.4 87 0.9 SW 9 11 5 6 1028.3 1028.4 0.0
22/08:30pm 8.1 4.8 4.7 79 1.5 WSW 11 13 6 7 1028.2 1028.3 0.0
22/08:00pm 8.9 6.0 4.9 76 1.8 W 9 13 5 7 1027.9 1028.0 0.0
22/07:30pm 8.1 4.8 4.3 77 1.7 SW 11 13 6 7 1027.6 1027.7 0.0
22/07:00pm 10.5 7.1 4.2 65 2.8 SSW 11 13 6 7 1027.3 1027.4 0.0
22/06:30pm 11.5 7.7 4.0 60 3.4 SSW 13 17 7 9 1027.2 1027.3 0.0
22/06:00pm 11.5 8.2 4.5 62 3.2 SSW 11 15 6 8 1026.9 1027.0 0.0
22/05:30pm 12.1 8.5 4.8 61 3.4 S 13 17 7 9 1026.6 1026.7 0.0
22/05:00pm 14.1 9.7 4.9 54 4.3 S 17 20 9 11 1026.3 1026.4 0.0
22/04:30pm 15.8 11.4 4.8 48 5.2 S 17 22 9 12 1026.0 1026.1 0.0
22/04:00pm 16.7 12.3 5.0 46 5.6 SSW 17 24 9 13 1025.8 1025.9 0.0
22/03:30pm 17.2 12.9 5.2 45 5.8 S 17 22 9 12 1025.5 1025.5 0.0
22/03:00pm 17.4 12.6 5.4 45 5.8 S 20 26 11 14 1025.3 1025.3 0.0
22/02:30pm 17.5 13.2 5.1 44 6.0 S 17 26 9 14 1025.1 1025.1 0.0
22/02:00pm 17.8 13.8 4.7 42 6.3 S 15 26 8 14 1025.0 1025.0 0.0
22/01:30pm 17.4 13.7 4.4 42 6.2 S 13 24 7 13 1025.0 1025.0 0.0
22/01:00pm 17.3 13.3 4.9 44 5.9 S 15 24 8 13 1025.1 1025.1 0.0
22/12:30pm 17.1 14.3 5.1 45 5.8 SSE 9 19 5 10 1025.1 1025.1 0.0
22/12:00pm 17.0 14.0 5.9 48 5.4 SE 11 19 6 10 1025.4 1025.4 0.0
22/11:30am 16.3 13.1 5.0 47 5.4 ESE 11 20 6 11 1025.8 1025.9 0.0
22/11:00am 16.1 11.8 5.4 49 5.1 S 17 24 9 13 1026.0 1026.1 0.0
22/10:30am 16.0 11.8 5.9 51 4.9 S 17 22 9 12 1026.1 1026.2 0.0
22/10:00am 15.2 11.8 6.0 54 4.4 S 13 19 7 10 1025.9 1026.0 0.0
22/09:30am 14.1 11.0 7.4 64 3.3 SSE 13 22 7 12 1025.5 1025.5 0.0
22/09:00am 13.2 10.3 8.1 71 2.5 S 13 19 7 10 1025.3 1025.3 0.0
22/08:30am 11.5 8.6 8.2 80 1.6 S 13 20 7 11 1025.2 1025.2 0.0
22/08:00am 9.6 7.2 8.5 93 0.5 S 11 13 6 7 1024.8 1024.8 0.0
22/07:30am 8.6 5.6 7.8 95 0.4 SSW 13 15 7 8 1024.2 1024.2 0.0
22/07:00am 9.2 6.0 8.3 94 0.4 SSW 15 20 8 11 1023.8 1023.8 0.0
22/06:30am 7.9 5.3 7.6 98 0.1 SSW 11 15 6 8 1023.6 1023.6 0.0
22/06:00am 7.0 4.5 6.7 98 0.1 SSW 9 11 5 6 1023.4 1023.4 0.0
22/05:30am 7.3 4.5 7.0 98 0.1 SW 11 13 6 7 1022.9 1023.0 0.0
22/05:00am 8.2 5.2 7.9 98 0.1 SW 13 13 7 7 1022.6 1022.7 0.0
22/04:30am 9.5 7.3 9.2 98 0.1 SW 11 13 6 7 1022.4 1022.5 0.0
22/04:00am 9.6 7.4 9.3 98 0.1 SW 11 13 6 7 1022.2 1022.3 0.0
22/03:30am 9.2 6.9 8.9 98 0.1 WSW 11 13 6 7 1022.2 1022.3 0.0
22/03:00am 9.3 7.4 9.0 98 0.1 WSW 9 13 5 7 1022.2 1022.3 0.0
22/02:30am 9.2 7.3 8.9 98 0.1 SW 9 9 5 5 1022.2 1022.3 0.0
22/02:00am 8.8 7.1 8.5 98 0.1 WSW 7 9 4 5 1022.2 1022.3 0.0
22/01:30am 7.9 6.2 7.6 98 0.1 SW 6 6 3 3 1022.0 1022.1 0.0
22/01:00am 7.8 5.5 7.5 98 0.1 WSW 9 9 5 5 1021.9 1022.0 0.0
22/12:30am 7.0 4.5 6.7 98 0.1 WSW 9 9 5 5 1022.0 1022.1 0.0
22/12:00am 7.2 4.8 6.9 98 0.1 SW 9 9 5 5 1021.9 1022.0 0.0
 
Date/Time
EST
Temp
°C
App
Temp
°C
Dew
Point
Rel
Hum
%
Delta-T
°C
Wind Press
QNH
hPa
Press
MSL
hPa
Rain
since 9 am
mm
Dir
 
Spd
km/h
Gust
km/h
Spd
kts
Gust
kts
21/11:30pm 7.9 5.6 7.6 98 0.1 SW 9 11 5 6 1021.9 1022.0 0.0
21/11:00pm 8.8 6.4 8.5 98 0.1 SW 11 13 6 7 1021.9 1022.0 0.0
21/10:30pm 9.7 7.3 8.5 92 0.6 SSW 11 15 6 8 1021.8 1021.9 0.0
21/10:00pm 10.5 7.8 9.1 91 0.7 SW 13 15 7 8 1021.8 1021.9 0.0
21/09:30pm 10.4 7.8 9.3 93 0.6 SW 13 15 7 8 1021.8 1021.9 0.0

Other Formats:

Comma delimited format used in spreadsheet applications
http://www.bom.gov.au/fwo/IDV60801/IDV60801.94862.axf

JavaScript Object Notation format (JSON) in row-major order
http://www.bom.gov.au/fwo/IDV60801/IDV60801.94862.json